STARLINK-4421, 53488

Orbit data source: Space-Track

STARLINK-4421, 53488 is a payload satellite owned by SpaceX/Seattle (US) in SSO that was launched on Fri, 12 Aug 2022 UTC via an FALCON 9 launch vehicle from the Air Force Western Test Range (AFWTR). Payload-class satellites include a variety of spacecraft equipped with specific instruments for various scientific and technological missions. These include communications satellites like Starlink; space stations such as the ISS; scientific satellites like the Hubble; Earth observation satellites from companies like Planet Labs, Umbra, and HawkEye 360; GPS; miniature CubeSats for education and research; and military/defense satellites.

Loading next visibility...
Identifier
53488, 2022-099Z
Orbit
SSO
Country
Flag of USUS
Related business
Manufacturer
SpaceX/Seattle
Mission
Operational Commercial Communications
Bus & Motor
STARLINK, Unknown motor
Mass
300 kg wet, ~275 kg dry
Launch date (UTC)
2022-08-12 (4 years ago)
Launch vehicle
FALCON 9
Launch site
Air Force Western Test Range (AFWTR)
Object type
Payload
Rocket body
Debris
Shape & HBR
Box + 1 Pan, 10.1 m
Radar Cross Section
13.562 m², Large (>1 m²)

Expand to show TLE details & history
Last TLE update: 13 hours ago

TLE from 13 hours ago
0 STARLINK-4421
1 53488U 22099Z   26145.32640659 -.00000892  00000-0 -57752-4 0  9994
2 53488  97.4455 266.4387 0002484 107.1407 253.0092 15.05640970207588
Epoch: 2026-05-25T07:50Z
TLE epoch observation values (Epoch: 2026-05-25T07:50:01.529Z)
Latitude
-0.00005°
Longitude
-93.98347°
Altitude
553.112 km
Speed
7.585 km/s
True Right ascension
17h 45m 45s
True Declination
0° 00' 00"
Sunlit
Object was in full shadow at epoch
Visualization orbit readout
Latitude
Unknown
Longitude
Unknown
Altitude
Unknown
Speed
Unknown
Apparent Right ascension
Unknown
Apparent Declination
Unknown
Sunlit
N/A
Visualization observer readout
Local Sidereal Time
06:10:45
Azimuth
Unknown
Elevation
Unknown
Doppler factor
Unknown
Orbital elements
Apogee altitude
548.246 km
Perigee altitude
544.805 km
Semi-major axis
6,924.663 km
Eccentricity
0.00025
Inclination
97.4455°
RAAN
266.4387°
Arg. of periapsis
107.1407°
True anomaly
252.98198°
Mean anomaly
253.0092°
Eccentric anomaly
252.99559°
Mean motion
3.76656 °/min
Orbital period
95.58 mins
BSTAR
-0.000057752
Loading maneuver chart data...
Computing Atmospheric mass density...
Loading historical data...
Loading historical data...
Loading historical data...
Loading historical data...
Loading historical data...
Loading historical data...
Loading historical data...

Documentation

Showing up to 5 results
|